Station BYGL1 - 8762482 - West Bank 1, Bayou Gauche, LA Image indicating link to RSS feed of recent meteorological observations for station BYGL1


Conditions at BYGL1 as of
(8:18 am CDT)
1318 GMT on 07/22/2024:
     

Click on the graph icon in the table below to see a time series plot of the last five days of that observation.

5-day plot - Atmospheric Pressure Atmospheric Pressure (PRES):30.04 in
5-day plot - Air Temperature Air Temperature (ATMP): 78.8 °F
5-day plot - Water Temperature Water Temperature (WTMP): 81.1 °F
NOS Water Level Observation Network Water Level
Previous observations
TIME
(CDT)
5-day plot - Wind Direction
WDIR
 
5-day plot - Wind Speed
WSPD
kts
5-day plot - Wind Gust
GST
kts
5-day plot - Wave Height
WVHT
ft
5-day plot - Dominant Wave Period
DPD
sec
5-day plot - Average Wave Period
APD
sec
5-day plot - Mean Wave Direction
MWD
 
5-day plot - Atmospheric Pressure
PRES
in
5-day plot - Pressure Tendency
PTDY
in
5-day plot - Air Temperature
ATMP
°F
5-day plot - Water Temperature
WTMP
°F
5-day plot - Dew Point
DEWP
°F
5-day plot - Salinity
SAL
psu
5-day plot - Visibility
VIS
nmi
5-day plot - Tide (above MLLW)
TIDE
ft
2024-07-22 08:12 am-------30.04- 78.6 81.1----
2024-07-22 08:06 am-------30.04- 78.6 81.1----
2024-07-22 08:00 am-------30.04+0.04 78.4 81.1----
2024-07-22 07:54 am-------30.04- 78.3 81.1----
2024-07-22 07:48 am-------30.04- 78.1 81.1----
2024-07-22 07:42 am-------30.04- 77.7 81.1----
2024-07-22 07:36 am-------30.03- 77.7 81.1----
2024-07-22 07:30 am-------30.03- 77.5 81.1----
2024-07-22 07:24 am-------30.03- 77.4 81.1----
2024-07-22 07:18 am-------30.03- 77.2 81.0----
2024-07-22 07:12 am-------30.03- 77.2 81.1----
2024-07-22 07:06 am-------30.03- 77.0 81.1----
2024-07-22 07:00 am-------30.03+0.02 77.0 81.1----
2024-07-22 06:54 am-------30.02- 76.8 81.1----
2024-07-22 06:48 am-------30.03- 76.8 81.1----
2024-07-22 06:42 am-------30.02- 76.6 81.1----
2024-07-22 06:36 am-------30.02- 76.5 81.1----
2024-07-22 06:30 am-------30.02- 76.5 81.1----
2024-07-22 06:24 am-------30.02- 76.6 81.1----
2024-07-22 06:18 am-------30.02- 76.5 81.3----
2024-07-22 06:12 am-------30.02- 76.5 81.3----
2024-07-22 06:06 am-------30.02- 76.5 81.3----
2024-07-22 06:00 am-------30.01+0.01 76.5 81.3----
2024-07-22 05:54 am-------30.01- 76.5 81.3----
2024-07-22 05:48 am-------30.01- 76.5 81.5----
2024-07-22 05:42 am-------30.01- 76.5 81.5----
2024-07-22 05:36 am-------30.02- 76.3 81.5----
2024-07-22 05:30 am-------30.01- 76.1 81.5----
2024-07-22 05:24 am-------30.01- 76.3 81.5----
2024-07-22 05:18 am-------30.01- 76.3 81.7----
2024-07-22 05:12 am-------30.01- 76.1 81.7----
2024-07-22 05:06 am-------30.01- 76.3 81.7----
2024-07-22 05:00 am-------30.01+0.00 76.3 81.7----
2024-07-22 04:54 am-------30.01- 76.3 81.9----
2024-07-22 04:48 am-------30.01- 76.3 81.9----
2024-07-22 04:42 am-------30.01- 76.3 81.9----
2024-07-22 04:36 am-------30.01- 76.3 82.0----
2024-07-22 04:30 am-------30.01- 76.3 82.0----
2024-07-22 04:24 am-------30.01- 76.1 82.2----
2024-07-22 04:18 am-------30.01- 76.1 82.2----
2024-07-22 04:12 am-------30.01- 76.3 82.2----
2024-07-22 04:06 am-------30.01- 76.3 82.2----
2024-07-22 04:00 am-------30.01-0.01 76.3 82.4----
2024-07-22 03:54 am-------30.01- 76.3 82.4----
2024-07-22 03:48 am-------30.01- 76.5 82.4----
2024-07-22 03:42 am-------30.01- 76.5 82.4----
2024-07-22 03:36 am-------30.00- 76.5 82.6----
2024-07-22 03:30 am-------30.00- 76.5 82.6----
2024-07-22 03:24 am-------30.00- 76.5 82.6----
2024-07-22 03:18 am-------30.00- 76.5 82.6----
2024-07-22 03:12 am-------30.01- 76.5 82.8----
2024-07-22 03:06 am-------30.01- 76.5 82.8----
2024-07-22 03:00 am-------30.01-0.03 76.5 82.8----
2024-07-22 02:54 am-------30.01- 76.5 82.8----
2024-07-22 02:48 am-------30.01- 76.5 82.9----
2024-07-22 02:42 am-------30.01- 76.5 82.9----
2024-07-22 02:36 am-------30.01- 76.5 82.9----
2024-07-22 02:30 am-------30.01- 76.5 82.9----
2024-07-22 02:24 am-------30.01- 76.6 83.1----
2024-07-22 02:18 am-------30.01- 76.8 83.1----
2024-07-22 02:12 am-------30.01- 76.8 83.1----
2024-07-22 02:06 am-------30.01- 76.8 83.1----
2024-07-22 02:00 am-------30.01-0.03 76.6 83.3----
2024-07-22 01:54 am-------30.01- 77.0 83.3----
2024-07-22 01:48 am-------30.01- 76.8 83.3----
2024-07-22 01:42 am-------30.01- 76.8 83.3----
2024-07-22 01:36 am-------30.02- 76.8 83.3----
2024-07-22 01:30 am-------30.01- 76.6 83.3----
2024-07-22 01:24 am-------30.01- 76.6 83.3----
2024-07-22 01:18 am-------30.01- 76.6 83.5----
2024-07-22 01:12 am-------30.01- 76.8 83.5----
2024-07-22 01:06 am-------30.01- 77.0 83.5----
2024-07-22 01:00 am-------30.02-0.01 76.8 83.5----
2024-07-22 12:54 am-------30.02- 76.8 83.5----
2024-07-22 12:48 am-------30.02- 76.8 83.5----
2024-07-22 12:42 am-------30.02- 76.5 83.5----
2024-07-22 12:36 am-------30.02- 76.5 83.5----
2024-07-22 12:30 am-------30.03- 76.5 83.5----
2024-07-22 12:24 am-------30.03- 76.6 83.5----
2024-07-22 12:18 am-------30.03- 76.6 83.5----
2024-07-22 12:12 am-------30.03- 76.6 83.5----
2024-07-22 12:06 am-------30.03- 76.6 83.7----
2024-07-22 12:00 am-------30.03+0.02 76.5 83.7----
2024-07-21 11:54 pm-------30.03- 76.5 83.7----
2024-07-21 11:48 pm-------30.03- 76.6 83.7----
2024-07-21 11:42 pm-------30.03- 76.6 83.7----
2024-07-21 11:36 pm-------30.03- 76.8 83.7----
2024-07-21 11:30 pm--------- 76.8 83.7----
2024-07-21 11:24 pm--------- 76.8 83.7----
2024-07-21 11:18 pm-------30.03- 76.8 83.7----
2024-07-21 11:12 pm-------30.03- 76.8 83.7----
2024-07-21 11:06 pm-------30.03- 77.0 83.8----
2024-07-21 11:00 pm-------30.03+0.00 77.0 83.8----
2024-07-21 10:54 pm-------30.04- 77.2 83.8----
2024-07-21 10:48 pm-------30.04-- 83.8----
2024-07-21 10:42 pm-------30.04-- 83.8----
2024-07-21 10:36 pm-------30.04-- 83.8----
2024-07-21 10:30 pm-------30.04- 77.5 83.8----
2024-07-21 10:24 pm-------30.03- 77.7 83.8----
2024-07-21 10:18 pm-------30.03- 77.7 83.8----
2024-07-21 10:12 pm-------30.03- 77.7 83.8----
2024-07-21 10:06 pm-------30.03- 77.7 84.0----
2024-07-21 10:00 pm-------30.03+0.03 77.7 84.0----
2024-07-21 09:54 pm-------30.03- 77.9 84.0----
2024-07-21 09:48 pm-------30.03- 77.9 84.0----
2024-07-21 09:42 pm-------30.02- 78.1 84.0----
2024-07-21 09:36 pm-------30.03- 78.1 84.0----
2024-07-21 09:30 pm--------- 78.1 84.0----
2024-07-21 09:24 pm--------- 78.1 84.0----
2024-07-21 09:18 pm-------30.02- 78.3 84.0----
2024-07-21 09:12 pm-------30.02- 78.4 84.0----
2024-07-21 09:06 pm-------30.02- 78.6 84.0----
2024-07-21 09:00 pm-------30.01+0.01 78.8 84.0----
2024-07-21 08:54 pm-------30.01- 79.0 84.0----
2024-07-21 08:48 pm-------30.01- 79.2 84.2----
2024-07-21 08:42 pm-------30.02- 79.3 84.2----
2024-07-21 08:36 pm-------30.03- 79.7 84.2----
2024-07-21 08:30 pm-------30.03- 79.9 84.2----
2024-07-21 08:24 pm-------30.03- 80.1 84.2----
2024-07-21 08:18 pm-------30.03-- 84.2----
2024-07-21 08:12 pm-------30.03-- 84.2----
2024-07-21 08:06 pm-------30.03-- 84.2----
2024-07-21 08:00 pm-------30.03+0.01- 84.2----
2024-07-21 07:54 pm-------30.03-- 84.2----
2024-07-21 07:48 pm-------30.02- 80.1 84.2----
2024-07-21 07:42 pm-------30.02- 80.2 84.2----
2024-07-21 07:36 pm-------30.02- 80.2 84.2----
2024-07-21 07:30 pm-------30.02- 80.2 84.2----
2024-07-21 07:24 pm-------30.02- 80.2 84.2----
2024-07-21 07:18 pm-------30.01-- 84.2----
2024-07-21 07:12 pm-------30.01-- 84.2----
2024-07-21 07:06 pm-------30.01-- 84.2----
2024-07-21 07:00 pm-------30.00+0.00 80.4 84.0----
2024-07-21 06:54 pm-------30.00- 80.4 84.0----
2024-07-21 06:48 pm-------30.00-------
2024-07-21 06:42 pm-------30.00-------
2024-07-21 06:36 pm-------30.00-------
2024-07-21 06:30 pm-------30.00- 80.4 84.0----
2024-07-21 06:24 pm-------30.00- 80.1 84.0----
2024-07-21 06:18 pm-------30.00- 80.2 84.0----
2024-07-21 06:12 pm-------30.00- 80.1 84.0----
2024-07-21 06:06 pm-------30.00- 79.7 84.0----
2024-07-21 06:00 pm-------30.00-0.04- 84.0----
2024-07-21 05:54 pm-------30.00-- 84.0----
2024-07-21 05:48 pm-------30.01- 79.3 84.0----
2024-07-21 05:42 pm-------30.01- 79.2 84.0----
2024-07-21 05:36 pm-------30.01- 79.2 84.0----
2024-07-21 05:30 pm-------30.02- 79.0 84.0----
2024-07-21 05:24 pm-------30.01- 78.8 83.8----
2024-07-21 05:18 pm-------30.02- 78.4 83.8----
2024-07-21 05:12 pm-------30.02- 78.3 83.8----
2024-07-21 05:06 pm-------30.02- 78.1 83.8----
2024-07-21 05:00 pm-------30.01-0.07 78.1 83.8----
2024-07-21 04:54 pm-------30.01- 78.3 83.8----
2024-07-21 04:48 pm-------30.01- 78.1 83.8----
2024-07-21 04:42 pm-------30.01- 77.9 83.8----
2024-07-21 04:36 pm-------30.01- 77.9 83.8----
2024-07-21 04:30 pm-------30.01-- 83.8----
2024-07-21 04:24 pm-------30.01-- 83.7----
2024-07-21 04:18 pm-------30.01- 77.5 83.7----
2024-07-21 04:12 pm-------30.00- 77.5 83.7----
2024-07-21 04:06 pm-------30.00- 77.5 83.7----
2024-07-21 04:00 pm-------30.00-0.05 77.2 83.7----
2024-07-21 03:54 pm-------30.00- 77.0 83.7----
2024-07-21 03:48 pm-------30.00- 76.6 83.7----
2024-07-21 03:42 pm-------30.00- 75.9 83.7----
2024-07-21 03:36 pm-------30.00- 76.1 83.7----
2024-07-21 03:30 pm-------30.00- 75.9 83.7----
2024-07-21 03:24 pm-------30.00- 75.6 83.7----
2024-07-21 03:18 pm-------30.01- 75.2 83.8----
2024-07-21 03:12 pm-------30.01- 75.2 83.8----
2024-07-21 03:06 pm-------30.03- 75.2 83.8----
2024-07-21 03:00 pm-------30.04-0.01 75.2 83.8----
2024-07-21 02:54 pm-------30.05- 75.0 83.8----
2024-07-21 02:48 pm-------30.06- 75.0 83.8----
2024-07-21 02:42 pm-------30.06- 75.0 83.8----
2024-07-21 02:36 pm-------30.07- 75.0 83.8----
2024-07-21 02:30 pm-------30.07- 75.0 83.8----
2024-07-21 02:24 pm-------30.08- 75.2 84.0----
2024-07-21 02:18 pm-------30.08- 75.2 84.0----
2024-07-21 02:12 pm-------30.08- 75.2 84.0----
2024-07-21 02:06 pm-------30.08- 75.4 84.0----
2024-07-21 02:00 pm-------30.09+0.04 75.4 84.0----
2024-07-21 01:54 pm-------30.09- 75.4 84.0----
2024-07-21 01:48 pm-------30.10- 75.4 84.0----
2024-07-21 01:42 pm-------30.10- 75.4 84.0----
2024-07-21 01:36 pm-------30.09- 75.4 84.0----
2024-07-21 01:30 pm--------- 75.2 84.0----
2024-07-21 01:24 pm--------- 75.2 84.2----
2024-07-21 01:18 pm-------30.08- 75.2 84.2----
2024-07-21 01:12 pm-------30.08- 75.2 84.2----
2024-07-21 01:06 pm-------30.06- 75.2 84.2----
2024-07-21 01:00 pm-------30.04+0.01- 84.2----
2024-07-21 12:54 pm-------30.06-- 84.2----
2024-07-21 12:48 pm-------30.06-- 84.2----
2024-07-21 12:42 pm-------30.06-- 84.2----
2024-07-21 12:36 pm-------30.06-- 84.2----
2024-07-21 12:30 pm-------30.07- 75.9 84.2----
2024-07-21 12:24 pm-------30.06- 75.9 84.2----
2024-07-21 12:18 pm-------30.06- 75.9 84.2----
2024-07-21 12:12 pm-------30.06- 76.1 84.2----
2024-07-21 12:06 pm-------30.06- 76.3 84.2----
2024-07-21 12:00 pm-------30.06+0.02 76.1 84.2----
2024-07-21 11:54 am-------30.07- 76.5 84.2----
2024-07-21 11:48 am-------30.06- 76.5 84.2----
2024-07-21 11:42 am-------30.04- 76.1 84.2----
2024-07-21 11:36 am-------30.03- 75.7 84.2----
2024-07-21 11:30 am-------30.04- 75.9 84.2----
2024-07-21 11:24 am-------30.05- 75.9 84.2----
2024-07-21 11:18 am-------30.05- 75.9 84.2----
2024-07-21 11:12 am-------30.05- 76.5 84.2----
2024-07-21 11:06 am-------30.05- 76.8 84.2----
2024-07-21 11:00 am-------30.05+0.01 77.2 84.2----
2024-07-21 10:54 am-------30.03- 77.2 84.2----
2024-07-21 10:48 am-------30.04- 75.7 84.2----
2024-07-21 10:42 am-------30.04- 75.4 84.2----
2024-07-21 10:36 am-------30.04- 75.2 84.2----
2024-07-21 10:30 am-------30.04- 74.8 84.2----
2024-07-21 10:24 am-------30.03- 75.7 84.2----
2024-07-21 10:18 am-------30.04- 75.7 84.2----
2024-07-21 10:12 am-------30.05- 76.6 84.4----
2024-07-21 10:06 am-------30.05- 77.0 84.4----
2024-07-21 10:00 am-------30.03+0.01 78.4 84.4----
2024-07-21 09:54 am-------30.03- 80.8 84.4----
2024-07-21 09:48 am-------30.04- 83.5 84.2----
2024-07-21 09:42 am-------30.03- 83.3 84.2----
2024-07-21 09:36 am-------30.03- 83.3 84.2----
2024-07-21 09:30 am-------30.03- 83.1 84.2----
2024-07-21 09:24 am-------30.03- 83.3 84.2----
2024-07-21 09:18 am-------30.03- 82.8 84.2----
2024-07-21 09:12 am-------30.03- 82.4 84.2----
2024-07-21 09:06 am-------30.04- 82.4 84.0----
2024-07-21 09:00 am-------30.04+0.01 82.0 84.0----
2024-07-21 08:54 am-------30.04- 82.0 84.0----
2024-07-21 08:48 am-------30.04- 81.9 84.0----
2024-07-21 08:42 am-------30.04- 81.7 84.0----
2024-07-21 08:36 am-------30.04- 81.3 84.0----
2024-07-21 08:30 am-------30.04-- 84.0----
2024-07-21 08:24 am-------30.04-- 84.0----
2024-07-21 08:18 am-------30.04- 81.1 84.0----
2024-07-21 08:12 am-------30.04- 80.8 84.0----
2024-07-21 08:06 am-------30.04- 80.6 84.0----
2024-07-21 08:00 am-------30.03+0.03- 84.0----
2024-07-21 07:54 am-------30.03-- 84.0----